STARLINK-34893

Last updated on Mon Oct 20 2025 00:02:06 GMT+0000 (Coordinated Universal Time)

1 65752U 25216U 25292.25002315 -.00055022 00000+0 -13758-2 0 9990 2 65752 53.1595 272.2514 0001067 87.6101 317.3696 15.39612745 4816
UTC large
Height (km)
Speed (km/s)
/
Latitude / Longitude
Inclination (degrees)
Orbital Period (minutes)
Azimuth
Elevation
Range (km)
Doppler Factor

Next 0 passes for location: London (51.5072 / 0.1276)

Sorry there are no passes over London.